Zurück zum Katalog

STARLINK-35712

AktivKommunikationVLEO
NORAD 66215·PAYLOAD·🇺🇸 United States

Gestartet Oct 28, 2025 von Vandenberg Space Force Base

Loading…

Nächste Überflüge (nächste 24 Stunden)

TLE

AktuellSource: CelesTrak SupGP

Epoche: Sep 14, 2026, 21:30 UTC

1 66215C 25244K   26257.89631944  .00023569  00000+0  69651-3 0  2574
2 66215  53.1588  68.1606 0001226  78.4744 110.0869 15.34371626    18

Verfolge STARLINK-35712 in Echtzeit mit AllMySat

Download on the App Store